Погода в Сокоче

Россия / Камчатский край     53°09′09″N   157°41′28″E
темп.,
°C
ветер,
м/с
пор.,
м/с
влажн.,
%
обл.,
%
осадки,
мм/ч
давл.,
гПа
погр.,
м
23 января, сб
сб2300:00−18зсз1167100 0.0 100120
03:00−17сз1265100 0.0 100120
06:00−17сз2270100 0.0 100021
09:00−19сз2272100 0.0 100120
12:00−15сз228099 0.0 100172
15:00−12з227278 0.0 1000190
18:00−17зсз127980 0.0 100220
21:00−18сз1272100 0.0 100320
24 января, вс
вс2400:00−20зсз126167 0.0 100520
03:00−21зсз125946 0.0 100520
06:00−22зсз115622 0.0 100620
09:00−22зсз11540 0.0 100820
12:00−17зсз11615 0.0 100938
15:00−15з226354 0.0 1009122
18:00−20зюз227535 0.0 101120
21:00−22зюз128030 0.0 101320
25 января, пн
пн2500:00−22зюз228264 0.0 101320
03:00−21зюз2288100 0.0 101320
06:00−21з229399 0.0 101320
09:00−19зюз11100100 0.0 101320
12:00−14юз3494100 0.3 1013298
15:00−14юз4790100 0.4 1011752
18:00−17юз2293100 0.7 101120
21:00−19зюз1193100 0.0 101220
26 января, вт
вт2600:00−20з1195100 0.1 101320
03:00−20зсз1110092 0.1 101420
06:00−20сз229791 0.1 101420
09:00−23сз229154 0.0 101620
12:00−19ссз228648 0.0 101779
15:00−15ссз2380100 0.0 1016234
18:00−20ссз239050 0.0 101720
21:00−20сз338534 0.0 101723
27 января, ср
ср2700:00−21сз337540 0.0 101720
03:00−21сз22680 0.0 101620
06:00−21зсз33610 0.0 101420
09:00−23зсз33570 0.0 101220
12:00−19з22630 0.0 100976
15:00−16з33720 0.0 1007170
18:00−22з22900 0.0 100520
21:00−23зсз22890 0.0 100320